Weather History for KBOK - October, 2013

Change the Weather History Date:

Wednesday, October 16, 2013

  Actual Average Record
Temperature  
Mean Temperature 60 °F -  
Max Temperature 72 °F 65 °F 88 °F (1936)
Min Temperature 47 °F 46 °F 38 °F (1934)
Degree Days  
Heating Degree Days 6    
Growing Degree Days 10 (Base 50)    
Moisture  
Dew Point 39 °F    
Average Humidity 54    
Maximum Humidity 77    
Minimum Humidity 24    
Precipitation  
Precipitation 0.23 in - - ()
Sea Level Pressure  
Sea Level Pressure 30.08 in    
Wind  
Wind Speed 1 mph (East)    
Max Wind Speed 7 mph    
Max Gust Speed -    
Visibility 10 miles    
Events      
Averages and records for this station are not official NWS values.
T = Trace of Precipitation, MM = Missing Value Source: NWS Daily Summary

Daily Weather History Graph

Daily Weather History Graph

Search for Another Location

Airport or City:

Trip Planner

Search our weather history database for the weather conditions in past years. The results will help you decide how hot, cold, wet, or windy it might be!

Date:

Astronomy

Oct. 16, 2013 Rise Set
Actual Time 7:31 AM PDT 6:33 PM PDT
Civil Twilight 7:03 AM PDT 7:01 PM PDT
Nautical Twilight 6:30 AM PDT 7:33 PM PDT
Astronomical Twilight 5:58 AM PDT 8:06 PM PDT
Moon 5:17 PM PDT (10/16) 5:03 AM PDT (10/16)
Length of Visible Light 11h 58m
Length of Day
11h 02m
Waxing Gibbous, 94% of the Moon is Illuminated
Oct 16
Waxing Gibbous
Oct 18
Full
Oct 26
Last Quarter
Nov 3
New
Nov 9
First Quarter

Hourly Weather History & Observations

Time (PDT) Temp. Dew Point Humidity Pressure Visibility Wind Dir Wind Speed Gust Speed Precip Events Conditions
12:56 AM 52.0 °F 41.9 °F 69% 30.04 in 10.0 mi Calm Calm - N/A   Clear
1:56 AM 50.9 °F 41.0 °F 69% 30.03 in 10.0 mi Calm Calm - N/A   Clear
2:56 AM 50.9 °F 39.9 °F 66% 30.03 in 10.0 mi Calm Calm - N/A   Clear
3:56 AM 48.9 °F 39.9 °F 71% 30.02 in 10.0 mi Calm Calm - N/A   Clear
4:56 AM 48.9 °F 39.9 °F 71% 30.02 in 10.0 mi Calm Calm - N/A   Clear
5:56 AM 48.9 °F 38.8 °F 68% 30.03 in 10.0 mi Calm Calm - N/A   Clear
6:56 AM 50.0 °F 39.9 °F 68% 30.05 in 10.0 mi Calm Calm - N/A   Clear
7:56 AM 47.8 °F 41.0 °F 77% 30.07 in 10.0 mi Calm Calm - N/A   Clear
8:56 AM 50.9 °F 43.0 °F 74% 30.09 in 10.0 mi Calm Calm - N/A   Clear
9:56 AM 59.0 °F 43.9 °F 57% 30.10 in 10.0 mi ESE 3.5 mph - N/A   Clear
10:56 AM 64.9 °F 41.9 °F 43% 30.10 in 10.0 mi Calm Calm - N/A   Clear
11:56 AM 63.9 °F 41.9 °F 45% 30.11 in 10.0 mi Calm Calm - N/A   Clear
12:56 PM 64.9 °F 43.0 °F 45% 30.11 in 10.0 mi West 6.9 mph - 0.23 in   Clear
1:56 PM 70.9 °F 32.0 °F 24% 30.11 in 10.0 mi WNW 3.5 mph - N/A   Clear
2:56 PM 72.9 °F 34.0 °F 24% 30.11 in 10.0 mi SSE 5.8 mph - N/A   Clear
3:56 PM 72.0 °F 34.0 °F 25% 30.10 in 10.0 mi Variable 5.8 mph - N/A   Clear
4:56 PM 70.9 °F 34.9 °F 27% 30.10 in 10.0 mi South 3.5 mph - N/A   Clear
5:56 PM 68.0 °F 41.0 °F 37% 30.10 in 10.0 mi Calm Calm - N/A   Clear
6:56 PM 59.0 °F 39.9 °F 49% 30.10 in 10.0 mi NE 3.5 mph - N/A   Clear
7:56 PM 56.8 °F 36.9 °F 47% 30.11 in 10.0 mi NNE 3.5 mph - N/A   Clear
8:56 PM 54.9 °F 38.8 °F 55% 30.12 in 10.0 mi Calm Calm - N/A   Clear
9:56 PM 52.9 °F 38.8 °F 59% 30.12 in 10.0 mi Calm Calm - N/A   Clear
10:56 PM 50.9 °F 41.0 °F 69% 30.12 in 10.0 mi Calm Calm - N/A   Clear
11:56 PM 50.9 °F 39.9 °F 66% 30.12 in 10.0 mi Calm Calm - N/A   Clear